282  
ASUS43 KGLD 240208  
RWRGLD  
 
GOODLAND FORECAST AREA HOURLY WEATHER ROUNDUP  
NATIONAL WEATHER SERVICE GOODLAND KS  
700 PM MST FRI FEB 23 2018  
   
..OFFICIAL OBSERVATIONS
 
 
 
CITY SKY/WX TMP DP RH WIND PRES REMARKS
 
GOODLAND KS CLOUDY 26 19 74 SE12 30.02R WCI 16  
HILL CITY KS CLOUDY 25 20 81 E6 30.12S  
IMPERIAL NEB CLEAR 20 19 96 NE7 30.06F  
MCCOOK NEB PTCLDY 26 22 84 E12 30.10F WCI 16  
AKRON CO CLOUDY 27 23 85 E20G26 29.95R WCI 13  
BURLINGTON CO CLOUDY 28 23 81 SE9 29.99S  
LIMON CO CLOUDY 22 21 96 S15 29.91F WCI 9  

 
   
..UNOFFICIAL OBSERVATIONS
 
 
 
CITY SKY/WX TMP DP RH WIND PRES REMARKS
 
COLBY KS CLEAR 27 23 86 SE9 30.07S  
NORTON KS CLOUDY 28 21 74 E14G21 30.12 WCI 17  
SHARON SPRINGS N/A 26 22 85 SE5G15 N/A  
KIT CARSON CO N/A 25 22 86 MISG N/A  

 
 
 
CLICK HERE TO GO TO PREVIOUS BULLETINS.

The Nexlab KS Page
The Nexlab CO Page
The Nexlab NE Page Main Text Page